| time (UTC) | temp F | wind direction | speed MPH | gust MPH | rain 1hr in | rain 24hr in | rain mn in | humidity % | barometer mb |
| 20260906044403 | 39 | 229 | 0.0 | 0.0 | 0.00 | 0.01 | 0.00 | 94 | 1009.9 |
| 20260906043351 | 38 | 229 | 0.0 | 0.0 | 0.00 | 0.01 | 0.00 | 94 | 1009.9 |
| 20260906042350 | 38 | 229 | 0.0 | 0.0 | 0.00 | 0.01 | 0.00 | 94 | 1009.9 |
| 20260906041342 | 38 | 229 | 0.0 | 0.0 | 0.00 | 0.01 | 0.00 | 94 | 1009.9 |
| 20260906035327 | 38 | 229 | 0.0 | 0.0 | 0.00 | 0.01 | 0.01 | 93 | 1009.9 |
| 20260906034320 | 39 | 229 | 0.0 | 0.0 | 0.00 | 0.01 | 0.01 | 93 | 1009.9 |
| 20260906033310 | 41 | 229 | 0.0 | 0.0 | 0.00 | 0.01 | 0.01 | 93 | 1009.9 |
| 20260906032305 | 40 | 229 | 0.0 | 0.0 | 0.00 | 0.01 | 0.01 | 93 | 1009.9 |
| 20260906031259 | 38 | 229 | 0.0 | 0.0 | 0.00 | 0.01 | 0.01 | 92 | 1009.9 |
| 20260906030234 | 39 | 229 | 0.0 | 0.0 | 0.00 | 0.01 | 0.01 | 92 | 1009.9 |
| 20260906025228 | 39 | 229 | 0.0 | 0.0 | 0.00 | 0.01 | 0.01 | 92 | 1009.9 |
| 20260906024228 | 40 | 229 | 0.0 | 0.0 | 0.00 | 0.01 | 0.01 | 91 | 1009.9 |
| 20260906023216 | 39 | 229 | 0.0 | 0.0 | 0.00 | 0.01 | 0.01 | 91 | 1009.9 |
| 20260906022214 | 39 | 229 | 0.0 | 0.0 | 0.00 | 0.01 | 0.01 | 91 | 1009.9 |
| 20260906021209 | 41 | 229 | 0.0 | 0.0 | 0.00 | 0.01 | 0.01 | 90 | 1009.9 |
| 20260906020202 | 40 | 229 | 0.0 | 0.0 | 0.00 | 0.01 | 0.01 | 90 | 1009.9 |
| 20260906015155 | 40 | 229 | 0.0 | 0.0 | 0.00 | 0.01 | 0.01 | 90 | 1009.9 |
| 20260906014126 | 42 | 229 | 0.0 | 0.0 | 0.00 | 0.01 | 0.01 | 89 | 1009.9 |
| 20260906013126 | 42 | 229 | 0.0 | 0.0 | 0.00 | 0.01 | 0.01 | 89 | 1009.9 |
| 20260906010118 | 41 | 229 | 0.0 | 0.0 | 0.00 | 0.01 | 0.01 | 87 | 1009.9 |
| 20260906005112 | 41 | 229 | 0.0 | 0.0 | 0.00 | 0.01 | 0.01 | 86 | 1009.9 |
| 20260906004103 | 41 | 229 | 0.0 | 0.0 | 0.00 | 0.01 | 0.01 | 85 | 1009.9 |
| 20260906002039 | 42 | 229 | 0.0 | 0.0 | 0.00 | 0.01 | 0.01 | 82 | 1009.9 |
| 20260906001031 | 43 | 229 | 0.0 | 0.0 | 0.00 | 0.01 | 0.01 | 81 | 1009.9 |
| 20260906000011 | 42 | 229 | 0.0 | 0.0 | 0.00 | 0.01 | 0.01 | 78 | 1009.9 |
| 20260905235010 | 44 | 229 | 0.0 | 0.0 | 0.00 | 0.01 | 0.01 | 76 | 1009.9 |
| 20260905234004 | 45 | 229 | 0.0 | 0.0 | 0.00 | 0.01 | 0.01 | 74 | 1009.9 |
| 20260905232959 | 44 | 229 | 0.0 | 0.0 | 0.00 | 0.01 | 0.01 | 72 | 1009.9 |
| 20260905231957 | 45 | 229 | 0.0 | 0.0 | 0.00 | 0.01 | 0.01 | 69 | 1009.9 |
| 20260905230946 | 46 | 229 | 0.0 | 0.0 | 0.00 | 0.01 | 0.01 | 64 | 1009.9 |
| 20260905224935 | 48 | 229 | 0.0 | 0.0 | 0.00 | 0.01 | 0.01 | 58 | 1009.9 |
| 20260905223928 | 49 | 229 | 0.0 | 0.0 | 0.00 | 0.01 | 0.01 | 56 | 1009.9 |
| 20260905222909 | 49 | 229 | 0.0 | 0.0 | 0.00 | 0.01 | 0.01 | 54 | 1009.9 |
| 20260905220855 | 50 | 223 | 0.0 | 1.0 | 0.00 | 0.01 | 0.01 | 49 | 1009.9 |
| 20260905215855 | 50 | 163 | 0.0 | 2.0 | 0.00 | 0.01 | 0.01 | 51 | 1009.9 |
| 20260905213843 | 50 | 182 | 0.0 | 3.0 | 0.00 | 0.01 | 0.01 | 48 | 1009.9 |
| 20260905212841 | 50 | 199 | 1.0 | 4.0 | 0.00 | 0.01 | 0.01 | 45 | 1009.9 |
| 20260905211833 | 50 | 136 | 3.0 | 3.0 | 0.00 | 0.01 | 0.01 | 44 | 1009.9 |
| 20260905205830 | 50 | 255 | 0.0 | 4.0 | 0.00 | 0.01 | 0.01 | 45 | 1009.9 |
| 20260905204832 | 51 | 253 | 2.0 | 4.0 | 0.00 | 0.01 | 0.01 | 45 | 1009.9 |
| 20260905203832 | 50 | 181 | 0.0 | 3.0 | 0.00 | 0.01 | 0.01 | 48 | 1009.9 |
| 20260905202828 | 50 | 210 | 2.0 | 5.0 | 0.00 | 0.01 | 0.01 | 46 | 1009.9 |
| 20260905201825 | 50 | 113 | 3.0 | 5.0 | 0.00 | 0.01 | 0.01 | 48 | 1009.9 |
| 20260905200822 | 50 | 12 | 2.0 | 4.0 | 0.00 | 0.01 | 0.01 | 46 | 1009.9 |
| 20260905195818 | 50 | 239 | 0.0 | 4.0 | 0.00 | 0.01 | 0.01 | 48 | 1009.9 |
| 20260905194813 | 50 | 143 | 0.0 | 5.0 | 0.00 | 0.01 | 0.01 | 46 | 1009.9 |
| 20260905192758 | 50 | 323 | 0.0 | 5.0 | 0.00 | 0.01 | 0.01 | 48 | 1009.9 |
| 20260905191757 | 49 | 243 | 2.0 | 6.0 | 0.00 | 0.01 | 0.01 | 48 | 1009.9 |
| 20260905185754 | 48 | 296 | 0.0 | 2.0 | 0.00 | 0.01 | 0.01 | 47 | 1009.9 |
| 20260905184753 | 48 | 209 | 0.0 | 2.0 | 0.00 | 0.01 | 0.01 | 49 | 1009.9 |
| 20260905183751 | 48 | 112 | 1.0 | 5.0 | 0.00 | 0.01 | 0.01 | 49 | 1009.9 |
| 20260905181747 | 47 | 253 | 0.0 | 6.0 | 0.00 | 0.01 | 0.01 | 54 | 1009.9 |
| 20260905180748 | 47 | 194 | 3.0 | 5.0 | 0.00 | 0.01 | 0.01 | 52 | 1009.9 |
| 20260905174745 | 47 | 172 | 1.0 | 5.0 | 0.00 | 0.01 | 0.01 | 56 | 1009.9 |
| 20260905173741 | 47 | 191 | 1.0 | 4.0 | 0.00 | 0.01 | 0.01 | 59 | 1009.9 |
| 20260905172735 | 47 | 264 | 2.0 | 7.0 | 0.00 | 0.01 | 0.01 | 60 | 1009.9 |
| 20260905171734 | 47 | 274 | 2.0 | 6.0 | 0.00 | 0.01 | 0.01 | 61 | 1009.9 |
| 20260905170736 | 46 | 202 | 5.0 | 6.0 | 0.00 | 0.01 | 0.01 | 62 | 1009.9 |
| 20260905163733 | 45 | 302 | 0.0 | 9.0 | 0.00 | 0.01 | 0.01 | 66 | 1009.9 |
| 20260905162730 | 42 | 205 | 1.0 | 4.0 | 0.00 | 0.01 | 0.01 | 68 | 1009.9 |
| 20260905161731 | 42 | 209 | 0.0 | 5.0 | 0.00 | 0.01 | 0.01 | 72 | 1009.9 |
| 20260905160730 | 41 | 182 | 1.0 | 4.0 | 0.00 | 0.01 | 0.01 | 77 | 1009.9 |
| 20260905155732 | 39 | 187 | 2.0 | 4.0 | 0.00 | 0.01 | 0.01 | 79 | 1009.9 |
| 20260905154727 | 39 | 219 | 0.0 | 5.0 | 0.00 | 0.01 | 0.01 | 82 | 1009.9 |
| 20260905152718 | 39 | 66 | 0.0 | 0.0 | 0.00 | 0.01 | 0.01 | 93 | 1009.9 |
| 20260905151710 | 39 | 66 | 0.0 | 0.0 | 0.00 | 0.01 | 0.01 | 96 | 1009.9 |
| 20260905150654 | 39 | 66 | 0.0 | 0.0 | 0.00 | 0.01 | 0.01 | 96 | 1009.9 |
| 20260905144640 | 39 | 66 | 0.0 | 0.0 | 0.01 | 0.01 | 0.01 | 96 | 1009.9 |
| 20260905143639 | 40 | 66 | 0.0 | 0.0 | 0.01 | 0.01 | 0.01 | 97 | 1009.9 |
| 20260905141634 | 40 | 66 | 0.0 | 1.0 | 0.01 | 0.01 | 0.01 | 96 | 1009.9 |
| 20260905140631 | 40 | 66 | 0.0 | 2.0 | 0.01 | 0.01 | 0.01 | 97 | 1009.9 |
| 20260905135620 | 40 | 198 | 0.0 | 2.0 | 0.00 | 0.00 | 0.00 | 97 | 1009.9 |
| 20260905134611 | 40 | 170 | 0.0 | 0.0 | 0.00 | 0.00 | 0.00 | 97 | 1009.9 |
| 20260905133605 | 39 | 170 | 0.0 | 0.0 | 0.00 | 0.00 | 0.00 | 97 | 1009.9 |
| 20260905132544 | 39 | 170 | 0.0 | 0.0 | 0.00 | 0.00 | 0.00 | 98 | 1009.9 |
| 20260905131538 | 38 | 170 | 0.0 | 0.0 | 0.00 | 0.00 | 0.00 | 97 | 1009.9 |
| 20260905125527 | 38 | 170 | 0.0 | 0.0 | 0.00 | 0.00 | 0.00 | 97 | 1009.9 |
| 20260905124528 | 38 | 170 | 0.0 | 0.0 | 0.00 | 0.00 | 0.00 | 97 | 1009.9 |
| 20260905123516 | 38 | 170 | 0.0 | 0.0 | 0.00 | 0.00 | 0.00 | 97 | 1009.9 |
| 20260905121503 | 37 | 170 | 0.0 | 0.0 | 0.00 | 0.00 | 0.00 | 97 | 1009.9 |
| 20260905120500 | 37 | 170 | 0.0 | 0.0 | 0.00 | 0.00 | 0.00 | 97 | 1009.9 |
| 20260905115451 | 37 | 170 | 0.0 | 0.0 | 0.00 | 0.00 | 0.00 | 97 | 1009.9 |
| 20260905114442 | 37 | 170 | 0.0 | 0.0 | 0.00 | 0.00 | 0.00 | 97 | 1009.9 |
| 20260905113425 | 38 | 170 | 0.0 | 0.0 | 0.00 | 0.01 | 0.00 | 97 | 1009.9 |
| 20260905112420 | 38 | 170 | 0.0 | 0.0 | 0.00 | 0.01 | 0.00 | 97 | 1009.9 |
| 20260905111412 | 38 | 170 | 0.0 | 0.0 | 0.00 | 0.01 | 0.00 | 97 | 1009.9 |
| 20260905110407 | 39 | 170 | 0.0 | 0.0 | 0.00 | 0.01 | 0.00 | 97 | 1009.9 |
| 20260905104357 | 38 | 170 | 0.0 | 0.0 | 0.00 | 0.01 | 0.00 | 97 | 1009.9 |
| 20260905103349 | 38 | 170 | 0.0 | 0.0 | 0.00 | 0.01 | 0.00 | 97 | 1009.9 |
| 20260905102343 | 39 | 170 | 0.0 | 0.0 | 0.00 | 0.01 | 0.00 | 97 | 1009.9 |
| 20260905101335 | 39 | 170 | 0.0 | 0.0 | 0.00 | 0.01 | 0.00 | 97 | 1009.9 |
| 20260905100328 | 39 | 170 | 0.0 | 0.0 | 0.00 | 0.01 | 0.00 | 96 | 1009.9 |
| 20260905095318 | 38 | 170 | 0.0 | 0.0 | 0.00 | 0.01 | 0.00 | 97 | 1009.9 |
| 20260905094310 | 38 | 170 | 0.0 | 0.0 | 0.00 | 0.01 | 0.00 | 96 | 1009.9 |
| 20260905093303 | 38 | 170 | 0.0 | 0.0 | 0.00 | 0.01 | 0.00 | 96 | 1009.9 |
| 20260905092258 | 39 | 170 | 0.0 | 0.0 | 0.00 | 0.01 | 0.00 | 96 | 1009.9 |
| 20260905091250 | 38 | 170 | 0.0 | 0.0 | 0.00 | 0.01 | 0.00 | 96 | 1009.9 |
| 20260905090242 | 38 | 170 | 0.0 | 0.0 | 0.00 | 0.01 | 0.00 | 96 | 1009.9 |
| 20260905085235 | 38 | 170 | 0.0 | 0.0 | 0.00 | 0.01 | 0.00 | 96 | 1009.9 |
| 20260905084228 | 39 | 170 | 0.0 | 0.0 | 0.00 | 0.01 | 0.00 | 96 | 1009.9 |
| 20260905083219 | 39 | 170 | 0.0 | 0.0 | 0.00 | 0.01 | 0.00 | 96 | 1009.9 |
| 20260905082212 | 39 | 170 | 0.0 | 0.0 | 0.00 | 0.01 | 0.00 | 96 | 1009.9 |
| 20260905081159 | 39 | 170 | 0.0 | 0.0 | 0.00 | 0.01 | 0.00 | 96 | 1009.9 |
| 20260905080147 | 39 | 170 | 0.0 | 0.0 | 0.00 | 0.01 | 0.00 | 96 | 1009.9 |
| 20260905075140 | 39 | 170 | 0.0 | 0.0 | 0.00 | 0.01 | 0.00 | 96 | 1009.9 |
| 20260905074136 | 39 | 170 | 0.0 | 0.0 | 0.00 | 0.01 | 0.00 | 96 | 1009.9 |
| 20260905073133 | 40 | 170 | 0.0 | 0.0 | 0.00 | 0.01 | 0.00 | 96 | 1009.9 |
| 20260905072126 | 39 | 170 | 0.0 | 0.0 | 0.00 | 0.01 | 0.00 | 96 | 1009.9 |
| 20260905071120 | 39 | 170 | 0.0 | 0.0 | 0.00 | 0.01 | 0.00 | 96 | 1009.9 |
| 20260905070113 | 39 | 170 | 0.0 | 0.0 | 0.00 | 0.01 | 0.00 | 96 | 1009.9 |
| 20260905065105 | 39 | 170 | 0.0 | 0.0 | 0.00 | 0.01 | 0.00 | 96 | 1009.9 |
| 20260905064058 | 39 | 170 | 0.0 | 0.0 | 0.00 | 0.01 | 0.00 | 96 | 1009.9 |
| 20260905063051 | 40 | 170 | 0.0 | 0.0 | 0.00 | 0.01 | 0.00 | 96 | 1009.9 |
| 20260905061036 | 40 | 170 | 0.0 | 0.0 | 0.00 | 0.01 | 0.00 | 96 | 1009.9 |
| 20260905060029 | 40 | 170 | 0.0 | 0.0 | 0.00 | 0.01 | 0.00 | 96 | 1009.9 |
| 20260905055014 | 41 | 170 | 0.0 | 0.0 | 0.00 | 0.01 | 0.00 | 96 | 1009.9 |
| 20260905054007 | 42 | 170 | 0.0 | 0.0 | 0.00 | 0.01 | 0.00 | 96 | 1009.9 |
| 20260905053002 | 40 | 170 | 0.0 | 0.0 | 0.00 | 0.01 | 0.00 | 96 | 1009.9 |
| 20260905051957 | 40 | 170 | 0.0 | 0.0 | 0.00 | 0.01 | 0.00 | 95 | 1009.9 |
| 20260905050951 | 40 | 170 | 0.0 | 0.0 | 0.00 | 0.01 | 0.00 | 95 | 1009.9 |
| 20260905044936 | 40 | 170 | 0.0 | 0.0 | 0.00 | 0.01 | 0.00 | 95 | 1009.9 |